TimeCET,TemperatureF,Dew PointF,Humidity,Sea Level PressureIn,VisibilityMPH,Wind Direction,Wind SpeedMPH,Gust SpeedMPH,PrecipitationIn,Events,Conditions,WindDirDegrees,DateUTC
12:00 AM,36,35,95,30.47,,SW,4.6,,,,,230,2013-12-21 23:00:00
1:00 AM,35,35,99,30.45,,SW,5.8,,,,,220,2013-12-22 00:00:00
2:00 AM,35,33,92,30.43,,SW,5.8,,,,,230,2013-12-22 01:00:00
3:00 AM,34,34,99,30.44,,SSW,4.6,,,,,210,2013-12-22 02:00:00
4:00 AM,34,34,100,30.42,,SW,3.5,,,,,220,2013-12-22 03:00:00
5:00 AM,35,34,93,30.41,,South,1.2,,,,,180,2013-12-22 04:00:00
6:00 AM,35,34,92,30.40,,SW,2.3,,,,,230,2013-12-22 05:00:00
7:00 AM,35,34,96,30.40,,SSW,1.2,,,,,210,2013-12-22 06:00:00
8:00 AM,35,34,96,30.40,,WSW,1.2,,,,,240,2013-12-22 07:00:00
9:00 AM,35,35,100,30.40,,SSW,4.6,,,,,200,2013-12-22 08:00:00
10:00 AM,36,35,92,30.40,,SW,2.3,,,,,220,2013-12-22 09:00:00
11:00 AM,37,35,92,30.39,,SW,2.3,,,,,220,2013-12-22 10:00:00
12:00 PM,38,36,88,30.36,,SW,3.5,,,,,230,2013-12-22 11:00:00
1:00 PM,40,37,87,30.33,,NNE,2.3,,,,,30,2013-12-22 12:00:00
2:00 PM,42,39,84,30.31,,ENE,1.2,,,,,70,2013-12-22 13:00:00
3:00 PM,42,40,88,30.30,,ENE,2.3,,,,,70,2013-12-22 14:00:00
4:00 PM,41,40,95,30.30,,SE,1.2,,,,,130,2013-12-22 15:00:00
5:00 PM,40,40,98,30.30,,ENE,1.2,,,,,70,2013-12-22 16:00:00
6:00 PM,39,39,98,30.31,,North,2.3,,,,,0,2013-12-22 17:00:00
7:00 PM,38,38,99,30.31,,ENE,2.3,,,,,60,2013-12-22 18:00:00
8:00 PM,36,36,100,30.31,,WSW,1.2,,,,,250,2013-12-22 19:00:00
9:00 PM,36,36,100,30.32,,NE,1.2,,,,,50,2013-12-22 20:00:00
10:00 PM,41,39,90,30.30,,SW,2.3,,,,,230,2013-12-22 21:00:00
11:00 PM,44,40,82,30.30,,WSW,2.3,,,,,250,2013-12-22 22:00:00